GFSNGP_prec_cthk_240.txt.gz
RH
84 87 89 93 96 94 96 97 97 76 65 59 72 76 71 72 61 56 50 47 45 44 42 42 41 43 43 44 43 46 45 49 56 57 63 66 66 66 69 71 73 73 71 74
81 78 78 82 81 78 82 81 84 78 71 66 73 81 80 80 72 67 61 55 47 46 46 45 45 47 46 44 44 48 49 51 54 57 66 70 71 73 75 74 76 77 75 75
79 78 84 88 67 65 69 71 68 66 68 73 73 86 88 84 73 66 65 64 59 51 49 48 47 48 52 50 48 47 46 51 53 56 59 65 72 74 79 78 79 80 78 74
89 84 91 56 57 60 63 61 58 57 61 62 66 68 72 77 70 69 66 69 68 62 53 47 49 49 50 48 50 50 52 52 52 55 63 68 68 70 74 77 80 79 75 71
90 80 58 52 44 47 51 54 50 53 54 52 54 59 61 62 66 76 71 67 70 68 61 57 51 52 53 52 52 52 54 56 55 58 62 64 68 70 73 75 77 76 74 72
76 76 66 37 37 48 52 54 48 47 50 56 56 57 58 57 53 57 58 77 68 72 71 61 58 55 52 53 49 50 53 54 58 61 66 68 75 73 77 79 79 76 76 73
68 77 53 28 30 36 55 43 39 43 47 50 52 54 51 53 54 51 50 52 72 73 69 73 68 62 55 52 49 49 52 56 61 62 67 73 77 81 83 78 81 80 76 67
69 75 59 31 45 54 53 37 38 38 40 44 47 50 45 47 48 47 48 50 58 64 63 65 65 64 56 54 53 52 55 57 60 66 69 73 77 79 81 85 81 80 73 66
63 47 24 26 45 52 54 41 38 38 37 40 44 46 41 39 42 49 42 47 46 47 50 51 47 50 57 60 60 55 57 59 62 66 71 74 78 79 91 84 88 78 73 72
86 39 42 53 48 54 51 47 38 48 39 38 37 35 36 41 42 44 51 46 45 44 51 53 54 54 61 64 63 60 58 61 66 67 67 73 78 80 77 90 85 74 74 73
78 64 73 63 61 66 54 46 35 37 37 34 37 38 35 35 43 41 49 47 50 50 47 46 50 58 66 69 69 63 61 60 61 65 67 68 72 73 80 82 75 78 82 77
74 73 76 68 78 76 70 64 54 44 42 39 38 40 39 42 39 40 37 38 36 41 37 43 53 54 67 80 76 67 64 65 64 66 69 73 74 74 82 80 76 80 81 81
77 71 63 57 63 63 62 58 61 56 46 46 42 45 37 38 36 38 37 38 39 31 36 42 58 57 58 72 81 68 63 66 68 68 72 75 77 78 85 80 82 81 80 81
69 67 61 60 54 55 55 53 53 49 44 45 43 41 41 43 40 39 38 41 42 40 33 40 46 56 59 69 75 81 69 63 69 74 76 80 80 84 85 82 86 80 83 74
67 63 60 59 55 55 55 52 50 42 45 45 44 41 43 46 45 44 44 39 39 38 33 29 38 37 49 66 70 84 80 65 69 82 81 84 88 89 92 86 81 86 85 77
68 64 59 55 52 53 54 52 53 46 50 52 50 44 48 50 48 50 51 47 46 40 33 34 32 26 43 65 78 80 90 72 69 84 88 88 94 96 96 88 83 84 81 80
64 60 60 59 60 60 62 63 59 56 55 54 51 52 54 50 52 55 54 54 51 43 41 39 30 30 35 47 67 60 76 74 69 81 87 89 93 98 96 88 86 85 83 88
67 69 71 71 71 70 68 70 68 65 63 62 57 54 54 59 56 55 58 60 59 55 43 39 36 37 35 36 54 62 58 66 71 76 87 90 92 98 97 91 88 86 92 98
68 71 77 81 81 75 72 73 75 76 77 73 67 60 56 56 59 55 54 57 56 52 41 43 37 34 32 33 43 57 61 58 69 72 87 94 96 95 97 91 86 92 98 97
73 80 84 86 85 81 78 82 82 85 88 80 70 67 65 60 63 62 59 53 47 42 40 36 34 35 34 37 45 57 63 63 65 73 87 95 98 99 97 90 93 98 97 91
82 85 87 86 80 82 85 90 94 92 86 78 72 67 65 62 59 57 53 50 48 49 48 45 41 40 43 45 55 59 68 70 70 68 77 98 99 98 97 96 98 98 92 86
87 88 90 90 87 91 94 94 91 92 91 89 84 75 70 64 61 63 69 68 70 65 59 56 61 66 64 64 62 61 78 78 78 84 96 99 98 98 98 98 98 94 86 80
90 90 92 97 95 97 97 97 96 97 97 97 97 92 88 84 83 86 90 91 91 90 93 95 90 78 76 68 71 80 83 87 93 98 99 98 98 98 98 97 95 86 84 80
92 94 96 97 97 97 96 96 97 97 97 97 97 95 88 90 93 96 96 96 95 96 97 96 98 99 91 96 98 93 97 98 98 98 98 98 98 98 97 97 91 83 80 78
95 97 98 98 97 96 97 96 95 96 97 97 98 96 96 97 97 97 97 97 97 98 98 98 98 90 95 97 98 98 98 98 98 98 98 98 98 98 94 88 85 82 75 71
97 98 98 98 97 96 97 97 97 97 97 96 95 96 97 97 97 97 97 97 97 98 98 97 98 97 98 98 98 98 98 98 98 98 98 97 97 93 89 85 80 72 69 65
95 97 98 98 93 91 96 97 97 97 97 97 97 98 98 98 97 97 97 98 98 98 98 98 98 98 98 98 98 99 98 97 97 98 97 93 88 79 73 71 68 63 55 52

GFSNGP_prec_cthk_246.txt.gz
RH
88 95 95 89 92 93 97 96 92 77 77 71 74 85 94 87 65 59 56 49 48 46 38 33 33 34 33 32 34 34 35 36 41 44 46 47 51 52 59 60 66 75 72 69
80 83 83 87 83 86 84 87 86 83 75 69 86 88 88 87 87 70 65 60 59 53 55 48 44 41 39 38 38 40 43 43 46 47 49 51 54 53 56 62 66 74 75 76
79 74 71 70 71 79 81 83 87 89 83 89 84 89 82 81 91 88 77 71 66 61 59 60 51 52 51 48 48 48 50 50 50 50 52 54 54 56 56 61 69 80 79 80
78 67 67 45 56 66 73 74 75 78 88 93 87 82 85 80 77 90 94 81 72 67 62 63 59 54 55 59 56 54 52 52 53 54 55 52 51 52 57 63 68 76 76 83
84 75 48 53 62 54 62 64 63 63 70 78 83 83 73 77 85 87 93 87 86 76 71 67 68 61 58 56 54 49 48 48 53 56 57 56 57 61 65 68 75 79 70 75
88 88 75 59 60 63 63 71 67 62 66 67 71 79 76 73 77 79 89 90 90 85 84 72 71 70 70 62 54 47 44 42 42 46 50 54 56 57 66 78 74 67 74 81
87 93 68 54 57 58 60 71 70 68 68 68 68 64 65 64 67 70 70 81 84 88 91 87 80 73 77 71 63 58 53 49 46 49 54 57 59 68 66 75 80 78 79 76
80 92 83 62 66 67 70 69 70 67 65 66 61 58 57 58 59 59 61 66 75 83 89 90 90 78 77 78 70 65 62 57 54 53 55 57 60 61 62 62 65 74 85 81
75 78 83 88 90 73 74 72 68 67 68 64 61 58 55 53 51 48 44 51 60 73 77 85 84 87 81 76 71 70 67 63 59 59 57 59 63 64 66 67 74 72 75 81
94 81 85 83 83 82 79 78 69 65 65 66 63 59 56 52 48 46 43 41 42 54 71 73 76 75 81 79 75 72 70 67 63 60 59 60 59 62 64 67 70 71 73 79
76 74 79 75 81 74 76 74 68 64 58 58 58 56 54 51 47 44 39 39 38 39 41 60 71 77 75 74 71 75 74 72 69 68 66 66 62 60 62 63 69 71 76 78
80 81 87 86 73 70 70 68 63 60 57 59 56 51 47 41 42 41 37 34 35 34 34 35 41 56 66 69 68 68 69 71 74 77 75 75 74 67 65 64 63 68 73 80
79 68 68 68 67 62 60 63 61 61 61 57 55 54 48 44 45 45 41 37 36 33 28 24 26 33 40 50 54 59 62 66 70 74 79 81 74 72 73 70 65 65 70 78
69 77 75 69 65 65 64 60 59 56 56 53 49 46 44 40 36 34 32 33 33 34 33 26 23 20 26 32 39 45 52 53 60 64 73 78 83 78 79 77 70 66 67 77
74 83 82 75 74 66 58 54 51 48 44 43 43 42 39 36 33 30 28 28 30 29 26 28 26 21 22 21 24 31 42 48 55 52 60 69 74 80 81 81 77 73 71 74
83 84 84 76 65 54 50 46 43 43 46 47 45 42 39 37 37 35 32 30 30 28 28 30 28 21 23 27 25 26 27 33 43 48 48 61 69 75 79 84 78 78 79 79
82 78 75 66 54 48 46 48 50 49 47 48 47 47 46 42 40 39 37 38 35 31 27 31 29 29 28 25 29 29 28 29 30 40 41 44 55 68 75 83 86 83 84 85
82 75 64 59 58 55 53 56 55 56 57 57 55 52 51 51 47 44 42 41 36 33 29 27 27 31 37 36 29 30 31 29 29 33 36 35 47 62 69 73 79 86 83 88
70 65 63 64 66 66 65 63 65 63 61 62 62 60 59 58 56 54 54 53 49 45 34 42 38 37 43 43 45 39 38 39 39 38 38 35 38 54 68 72 82 84 85 87
71 68 66 67 69 70 72 74 72 68 69 69 71 73 71 68 65 64 65 62 61 57 56 53 51 44 39 45 46 44 41 37 40 44 44 41 38 39 63 77 80 84 88 91
69 69 68 70 75 79 80 77 73 73 75 76 77 77 77 77 73 70 70 68 69 70 65 62 60 54 48 51 55 55 55 53 52 51 51 46 43 41 43 73 74 80 84 89
68 67 69 71 76 81 82 77 75 76 80 82 81 83 85 87 85 81 80 81 75 73 66 61 57 55 54 54 56 57 58 56 55 55 55 51 47 45 44 49 70 76 85 83
65 65 66 71 77 82 85 82 77 77 81 84 85 85 90 94 96 95 92 89 87 78 71 60 52 47 47 47 48 49 51 52 53 56 55 51 47 45 42 39 54 69 80 90
66 63 62 66 79 83 83 82 78 79 85 88 89 88 91 94 95 97 98 96 89 84 78 68 60 54 51 49 48 47 47 46 48 50 53 53 52 47 44 41 44 54 73 91
70 65 61 63 72 83 83 81 79 79 83 86 89 91 93 96 98 97 97 97 96 90 77 69 65 62 60 60 61 61 61 57 52 52 53 51 49 48 48 46 49 53 71 88
67 70 66 64 63 74 84 80 79 80 82 86 89 91 93 94 97 98 97 97 95 95 95 94 95 94 92 92 93 93 88 79 70 59 53 52 51 52 52 52 62 77 90 97
58 66 70 66 64 67 80 83 79 80 83 87 89 92 95 94 97 97 97 97 96 95 95 96 97 96 95 94 97 96 94 81 71 67 60 54 51 55 63 71 84 97 97 92

GFSNGP_prec_cthk_249.txt.gz
RH
97 91 81 85 84 84 94 96 93 84 81 85 85 88 91 80 75 68 61 54 46 43 38 36 27 23 23 27 31 32 32 36 36 37 38 41 43 45 48 52 52 55 59 61
89 80 82 70 53 62 85 93 91 84 83 88 84 83 87 88 85 82 74 65 54 49 46 42 41 38 31 31 32 33 34 36 38 41 42 44 46 46 49 57 54 55 58 64
74 74 66 54 56 73 77 88 92 89 82 88 85 87 82 84 92 93 83 79 67 61 55 49 51 53 43 37 35 36 36 38 42 45 43 46 50 52 55 58 58 60 62 64
72 68 72 42 41 56 64 71 77 78 79 81 79 86 84 79 84 92 92 86 73 69 59 57 55 54 60 53 45 45 44 44 47 49 49 51 53 54 56 58 59 63 64 63
88 77 55 55 71 66 66 70 76 78 71 69 72 79 85 77 77 86 87 93 88 84 72 64 59 56 63 65 61 58 62 60 56 55 54 56 58 57 60 62 64 65 66 66
96 91 80 55 67 71 72 81 79 75 73 73 77 84 78 83 77 79 78 80 95 95 86 81 73 66 63 69 67 58 61 59 62 67 65 65 60 59 61 62 66 65 61 66
89 91 72 62 66 75 72 93 84 78 73 71 76 77 74 73 73 72 73 68 79 94 94 91 87 79 71 69 68 65 64 60 55 57 61 66 65 65 65 64 65 66 64 68
88 85 79 71 82 94 97 85 85 82 76 73 70 69 71 70 69 66 70 72 70 75 89 93 91 89 80 73 70 70 69 68 62 56 56 56 62 65 66 66 67 67 66 76
96 85 66 63 71 82 90 89 86 82 75 75 73 71 70 67 66 64 63 64 67 67 71 84 92 92 92 85 82 72 71 72 71 66 64 60 58 58 63 65 71 70 70 76
85 64 61 61 65 78 89 90 91 82 77 72 71 69 68 67 67 65 63 58 57 63 67 73 72 80 87 93 86 83 78 75 78 76 72 65 65 62 64 64 63 67 66 66
74 65 65 70 71 80 79 86 85 80 77 73 71 68 67 67 66 63 61 59 57 55 54 58 59 57 67 78 87 87 85 86 80 81 82 77 73 69 67 65 66 65 70 71
69 59 61 65 74 78 80 78 74 75 74 68 65 63 61 57 57 57 54 53 54 54 51 50 51 50 48 49 62 81 82 83 87 80 85 79 76 78 73 70 66 65 63 69
61 55 60 61 68 72 77 75 70 61 58 55 53 53 51 47 44 43 43 41 41 48 48 45 43 45 41 42 41 51 72 77 79 83 80 78 84 84 79 76 74 70 67 66
65 58 53 65 76 79 76 70 66 60 50 43 41 42 40 37 34 34 33 33 27 26 31 38 41 42 42 41 39 40 41 52 61 71 73 76 78 83 91 89 85 79 75 73
87 76 70 79 87 85 79 71 60 50 42 37 35 33 32 31 30 31 33 30 27 22 18 19 23 28 34 37 37 41 37 38 42 45 51 64 69 75 79 90 89 85 87 81
89 89 94 88 86 80 71 65 55 49 45 42 39 37 38 38 36 34 33 36 33 26 24 21 15 13 20 27 32 33 35 35 33 32 33 35 48 59 65 74 84 87 84 85
81 86 85 80 78 73 62 59 58 56 52 50 51 50 48 46 45 44 43 40 37 33 31 28 22 21 18 21 24 26 28 30 32 30 27 26 27 29 42 57 68 76 80 76
81 75 66 61 58 59 61 62 60 60 60 59 57 56 57 58 56 53 50 47 45 41 38 35 34 30 24 19 20 22 25 27 28 29 30 30 27 26 27 29 41 66 76 78
73 69 66 64 64 63 64 67 70 71 69 66 63 62 62 61 61 59 57 56 55 50 48 50 47 43 35 30 26 23 23 26 29 27 29 31 31 26 24 28 31 35 49 67
73 69 66 64 63 64 64 68 71 73 71 67 66 65 66 67 64 62 62 59 58 55 56 58 62 58 50 43 40 35 28 26 28 30 30 30 30 31 30 29 29 31 34 44
75 71 64 62 61 66 70 71 73 75 72 68 68 70 72 76 74 72 70 64 62 63 62 61 67 66 64 61 56 48 39 32 32 33 34 34 34 38 38 34 32 32 33 37
69 65 62 59 57 61 69 71 71 73 72 70 69 70 72 74 73 73 78 77 75 78 81 76 71 73 72 70 63 59 55 47 43 39 38 40 38 38 38 37 38 42 41 37
67 66 63 60 55 55 61 69 70 71 69 68 67 70 74 76 78 75 74 79 88 91 92 92 85 80 75 72 66 60 61 56 54 53 51 48 46 46 47 45 46 48 44 41
68 64 60 57 64 61 58 66 74 73 71 70 69 72 79 80 81 88 87 89 93 96 96 92 93 90 82 72 65 58 57 55 56 56 53 53 51 48 45 45 48 48 46 45
66 59 55 52 64 67 63 61 68 75 76 74 73 74 82 86 88 89 87 92 94 96 97 97 92 91 84 74 68 59 52 49 49 52 53 54 55 53 52 52 53 53 53 53
52 43 42 47 58 68 66 62 63 70 75 73 74 76 83 88 93 93 91 95 97 97 97 96 97 93 82 77 71 66 60 55 51 51 50 50 51 52 51 52 53 54 55 55
45 44 45 49 56 63 69 64 62 67 77 75 73 77 85 90 92 94 93 94 97 97 97 97 97 97 97 93 84 76 70 66 62 61 61 58 58 57 51 55 56 58 59 58

GFSNGP_prec_cthk_252.txt.gz
RH
86 78 80 80 80 67 75 83 95 78 93 94 97 95 96 95 92 81 68 59 50 44 39 35 32 32 31 31 27 26 26 25 24 24 26 27 30 36 41 45 47 49 52 56
73 74 75 61 52 62 61 67 87 92 92 96 95 93 93 94 95 92 82 76 67 59 47 40 38 36 37 34 28 25 23 23 26 25 27 28 32 38 43 46 47 48 51 54
75 73 72 67 54 58 60 66 83 89 79 77 86 86 90 91 91 95 90 85 80 72 67 59 48 40 39 36 35 30 27 25 26 29 31 35 38 43 45 47 48 49 52 56
82 80 86 53 48 58 64 72 87 87 88 78 83 86 86 89 86 91 92 92 85 85 78 68 60 58 60 53 45 39 34 30 27 32 37 40 44 46 49 50 50 51 55 57
89 86 67 67 70 81 76 82 94 93 90 86 83 86 86 84 81 84 87 89 89 92 90 84 72 68 67 65 63 63 49 41 38 41 44 47 47 49 50 53 55 54 57 63
90 95 88 62 73 68 86 91 94 95 93 87 85 89 86 80 79 79 77 76 74 84 93 90 85 82 76 69 67 68 69 67 57 57 56 58 56 55 54 56 58 58 59 63
96 95 76 64 69 73 87 97 97 97 94 89 88 81 80 80 80 71 71 70 70 74 86 96 92 86 80 76 73 73 75 66 65 68 66 66 64 64 62 62 61 61 64 63
88 89 84 78 69 78 81 85 92 97 92 88 83 80 77 75 74 73 73 68 67 69 73 82 94 92 87 90 82 76 73 77 71 65 71 73 72 69 66 67 66 69 69 65
95 85 74 70 71 75 78 84 95 96 86 83 85 82 80 78 75 74 74 71 65 69 70 73 83 92 88 91 94 90 84 80 83 79 74 71 73 74 74 73 72 72 72 68
91 69 70 65 78 81 80 85 90 94 88 85 81 80 80 79 76 75 74 71 67 67 66 66 74 81 84 87 92 94 91 86 81 81 83 83 78 75 69 71 71 73 73 68
62 55 60 60 68 73 79 82 85 88 91 86 80 76 70 70 68 68 67 64 62 60 62 63 67 72 75 71 79 89 91 87 90 86 86 89 86 80 75 73 73 71 75 75
56 53 57 56 64 74 77 82 82 83 81 77 72 65 58 53 54 55 52 50 51 53 53 56 59 62 66 73 68 68 76 83 89 91 92 90 88 91 86 84 80 76 78 75
63 61 55 51 55 62 71 78 79 82 75 67 62 53 45 41 39 37 40 39 37 42 41 42 44 52 58 60 69 66 64 61 71 85 90 94 93 89 91 92 90 86 81 79
78 76 72 63 57 58 67 75 78 75 72 66 55 46 40 37 34 32 31 32 35 36 36 33 33 35 38 49 51 55 53 55 56 57 65 83 88 92 90 91 92 92 89 87
91 85 87 81 72 73 78 78 74 69 62 57 50 47 44 41 37 34 31 30 29 29 31 35 33 28 28 30 34 39 48 45 44 46 48 52 70 78 83 84 84 86 94 94
96 92 88 96 95 89 80 71 64 58 52 49 49 49 49 47 45 42 37 36 33 30 30 31 33 34 32 28 26 25 28 35 41 38 38 41 44 51 59 73 76 80 83 87
96 94 89 84 79 74 68 63 59 57 55 53 51 51 51 49 47 45 43 41 39 36 33 31 30 31 30 31 30 25 23 23 25 32 32 33 35 36 42 46 51 64 70 79
85 81 76 72 69 67 65 63 61 60 59 58 54 51 49 49 48 48 49 48 45 41 39 34 32 32 35 35 34 31 26 21 20 22 25 28 28 31 33 40 40 37 40 55
83 80 78 74 71 68 66 64 63 62 61 62 62 59 57 56 53 52 52 51 50 47 42 40 36 33 34 37 39 40 37 32 24 19 21 23 24 25 28 30 35 38 35 32
79 79 76 73 70 66 61 61 61 62 62 61 63 63 60 57 55 55 56 56 54 52 50 48 46 42 39 37 38 46 45 40 36 29 23 23 24 24 24 26 30 32 35 35
77 74 71 68 66 64 60 56 55 58 64 65 63 62 60 56 56 57 59 58 58 60 58 56 54 53 52 49 45 48 53 49 44 40 33 26 26 27 26 27 28 26 28 34
74 68 66 66 64 64 60 55 53 54 59 64 65 65 62 60 60 62 68 68 65 66 65 62 62 64 65 64 62 59 59 60 53 48 44 39 32 30 31 31 29 28 31 37
71 73 72 71 66 60 56 53 58 59 59 66 70 69 67 65 66 69 70 78 78 78 76 73 73 74 75 75 75 74 72 71 65 57 52 47 42 37 34 35 38 39 38 38
78 74 73 68 60 53 49 48 62 68 66 66 74 75 73 69 69 78 82 82 84 82 81 80 82 84 85 83 81 80 84 79 71 62 60 59 54 48 45 44 47 46 44 41
68 65 56 50 45 43 42 44 58 68 67 65 71 74 78 77 77 77 86 91 91 89 87 86 90 91 89 91 87 89 89 83 71 65 64 64 63 59 53 49 48 50 53 53
60 49 46 45 44 45 46 47 54 65 65 60 64 68 77 76 79 84 89 93 91 92 91 90 94 93 94 95 93 87 86 81 77 67 63 63 64 62 57 54 56 57 57 55
50 44 46 45 48 50 51 52 54 61 67 62 61 67 74 74 79 88 89 91 91 94 93 92 93 95 96 96 97 91 82 79 73 69 61 57 57 56 57 57 56 57 58 57

GFSNGP_prec_cthk_258.txt.gz
RH
62 48 49 42 50 58 74 74 84 60 65 74 81 82 89 93 96 93 88 80 72 67 57 48 39 41 45 46 44 42 43 47 44 45 42 39 34 32 34 36 37 42 42 43
65 51 51 46 36 48 55 62 76 71 77 92 91 90 89 94 97 97 91 82 81 79 71 58 49 40 49 47 46 42 41 41 45 47 47 41 37 32 32 33 37 40 40 42
74 64 62 47 28 50 60 63 72 83 90 94 95 96 95 95 95 99 97 92 94 87 82 75 63 54 49 59 50 47 47 44 42 45 50 43 39 36 33 31 36 38 41 41
83 78 70 35 54 61 65 71 87 82 86 90 98 93 97 96 97 95 96 97 98 97 90 79 76 70 65 59 63 54 50 49 47 44 43 46 43 37 36 36 35 37 40 41
75 66 49 44 76 84 75 71 87 84 87 94 96 92 89 89 88 95 97 96 98 97 98 93 82 80 75 71 67 65 58 55 50 47 46 43 42 39 36 37 37 37 38 39
74 78 79 89 78 72 61 69 87 90 94 99 97 91 92 92 89 89 89 95 95 97 97 96 95 90 86 80 75 73 69 60 58 54 49 46 44 41 40 39 38 39 38 38
85 82 67 73 68 64 71 84 85 86 88 98 98 97 97 95 93 88 86 84 84 89 92 93 95 95 92 92 84 81 78 70 62 59 57 53 48 46 44 41 40 38 39 39
89 87 78 78 74 78 76 72 78 80 84 97 98 96 91 91 88 86 84 81 79 80 80 79 89 94 92 90 92 86 78 77 71 65 65 61 57 54 51 51 46 43 39 37
75 68 72 72 69 72 67 72 74 81 88 96 97 98 89 82 80 77 74 69 71 67 67 65 72 77 82 87 88 87 86 79 79 76 71 70 66 58 54 50 49 48 45 41
73 65 67 66 67 69 69 66 67 73 82 89 92 90 85 79 77 71 65 60 58 59 58 56 53 58 66 72 76 81 82 85 79 77 78 74 73 71 68 67 59 58 55 47
64 65 65 64 66 65 63 62 62 65 77 80 83 82 83 75 71 65 58 54 51 53 52 51 51 48 53 58 59 69 74 85 89 86 84 84 84 84 79 77 74 75 72 74
69 71 70 71 72 72 66 63 62 61 61 69 74 78 73 69 59 59 55 52 50 49 48 48 48 48 46 50 49 56 61 71 82 96 92 91 88 85 89 91 87 85 96 90
66 73 73 75 80 82 77 73 66 64 62 64 68 69 64 59 57 54 49 46 46 43 43 43 42 44 46 44 45 46 52 57 58 80 93 94 91 93 86 89 97 90 89 98
68 70 78 86 88 87 85 81 79 69 69 68 69 65 62 57 53 53 53 48 46 43 41 40 42 40 36 38 40 40 43 47 48 53 73 89 90 92 88 88 88 96 93 97
63 73 75 84 88 89 87 89 87 75 71 69 67 65 59 54 50 48 49 46 44 43 40 35 33 35 35 34 35 35 35 40 44 42 47 61 84 87 84 81 85 91 93 96
67 70 75 78 81 77 74 73 77 76 74 68 64 61 58 53 50 47 45 44 42 40 34 33 32 32 34 37 38 35 36 36 38 40 40 43 50 67 83 79 75 75 84 91
70 75 78 74 76 75 76 77 72 67 66 64 63 62 59 55 51 48 46 43 40 36 34 34 34 35 33 35 38 39 37 31 34 36 38 40 41 45 55 70 74 71 74 69
71 74 75 77 75 76 74 73 70 66 63 59 57 55 53 52 50 49 46 44 43 41 39 38 37 35 35 38 38 36 37 36 35 34 33 33 36 38 39 46 56 65 65 71
70 74 74 78 82 80 79 77 72 67 62 58 55 52 51 49 48 49 49 48 49 46 47 46 43 41 40 41 40 38 36 36 36 35 35 31 30 32 32 34 36 48 54 56
70 70 70 75 76 73 71 69 67 65 63 59 55 51 48 46 45 43 45 48 51 52 52 50 49 48 49 50 50 47 43 40 39 37 36 36 34 32 32 31 30 32 37 43
62 67 72 73 73 74 66 65 64 61 59 57 54 49 45 41 40 45 44 48 52 56 54 50 49 50 52 53 53 52 50 47 43 41 39 37 36 35 34 33 31 32 29 32
77 77 77 80 78 75 73 68 63 59 56 51 41 37 38 40 41 49 52 52 51 55 55 53 52 55 56 56 56 55 53 51 48 47 45 43 42 40 37 36 34 35 37 31
74 72 70 69 69 67 67 66 63 58 50 43 35 36 38 41 47 56 55 58 57 58 59 55 56 60 63 64 64 61 57 55 54 53 51 50 49 47 45 42 41 39 41 41
68 66 62 59 61 63 61 59 54 45 42 38 38 41 44 45 52 64 61 57 58 61 63 62 63 67 70 74 74 71 68 66 64 63 63 62 61 60 57 54 51 49 49 48
67 61 55 54 52 51 51 52 47 42 38 38 41 44 48 51 53 60 62 56 58 66 68 69 73 77 80 81 79 76 75 77 81 81 80 76 73 71 68 66 62 61 58 56
64 60 55 51 49 48 48 50 45 40 41 42 42 45 47 51 53 59 58 56 62 71 75 78 82 84 87 86 82 83 85 88 91 92 89 85 83 80 77 76 73 75 73 72
62 56 54 52 50 47 48 50 41 40 43 44 40 41 44 47 51 57 57 57 63 72 76 85 87 88 89 88 87 88 90 94 96 97 92 82 78 76 78 78 78 78 82 84

GFSNGP_prec_cthk_264.txt.gz
RH
51 57 53 48 48 55 65 68 71 46 40 29 53 68 82 74 83 91 90 95 98 90 97 84 82 73 64 60 58 54 60 55 70 75 67 62 68 71 68 72 67 61 56 51
57 65 69 74 64 60 50 48 45 38 25 52 65 76 76 81 88 91 95 97 96 99 92 92 79 74 71 66 66 61 62 59 58 73 74 77 73 76 75 71 71 67 62 56
70 73 73 75 66 65 64 59 48 39 52 89 81 72 78 91 97 95 96 93 96 97 97 98 88 87 78 73 71 68 68 59 60 64 77 81 78 78 79 70 76 73 69 60
80 79 87 63 53 72 95 96 94 91 89 84 77 76 88 98 98 97 93 91 88 93 96 96 91 92 89 79 70 69 68 64 62 61 68 80 85 87 78 76 74 73 68 62
78 70 59 72 62 70 80 81 87 90 82 80 77 77 92 96 97 95 88 82 81 81 90 90 88 87 94 86 81 71 66 66 68 69 63 69 82 87 90 84 89 86 70 64
78 77 71 73 85 67 61 74 86 77 82 80 75 78 90 92 96 91 87 78 72 70 73 80 78 76 83 87 87 78 70 70 66 68 68 65 71 81 87 93 90 87 79 74
75 85 68 73 68 46 64 95 77 78 77 71 71 78 84 90 92 88 81 75 69 66 65 65 73 75 79 74 82 83 80 66 71 68 70 71 68 66 73 83 84 82 84 78
73 86 79 77 62 63 66 68 75 88 68 73 68 71 74 81 87 86 82 76 72 66 64 63 61 69 69 75 75 78 80 83 62 70 72 74 75 70 70 71 71 75 80 81
75 71 60 45 55 66 53 55 66 71 60 57 66 66 67 73 82 82 79 74 67 65 63 62 57 57 64 63 69 67 69 78 75 63 65 72 74 76 72 70 74 74 72 71
62 56 62 55 51 58 61 82 62 56 52 58 65 66 61 63 71 73 71 70 64 59 59 57 53 51 54 59 55 64 67 65 76 73 64 62 73 73 74 72 71 71 73 71
53 49 48 52 73 86 75 57 63 64 64 62 62 61 59 56 56 63 64 62 60 55 53 52 49 48 47 53 52 55 56 61 66 67 70 64 62 72 77 77 74 72 70 70
50 49 54 57 71 65 56 63 68 70 72 69 66 68 63 58 57 58 57 55 55 52 49 47 46 46 47 45 52 48 54 52 57 63 65 66 66 60 76 81 83 75 74 71
65 57 66 58 55 63 67 64 63 65 73 72 71 72 70 63 61 56 54 53 51 51 48 45 45 44 40 41 43 46 48 54 51 55 57 61 64 70 64 67 85 85 81 76
56 64 62 59 62 66 63 60 62 61 69 76 73 75 75 67 61 58 56 50 49 47 42 43 40 37 37 38 38 41 45 47 52 49 53 54 56 58 66 71 65 79 86 85
46 52 57 61 62 65 64 62 62 62 62 63 66 65 65 67 63 56 51 49 47 42 40 38 36 36 36 38 38 38 40 43 44 43 44 48 51 53 51 60 63 64 73 83
47 59 71 71 72 66 65 66 65 62 59 60 61 64 63 62 60 59 58 56 51 45 40 36 35 37 39 37 35 36 36 37 39 41 40 42 44 46 48 52 53 54 61 69
59 64 65 67 70 67 71 68 66 66 62 61 64 61 61 62 63 63 62 60 56 51 45 43 40 40 41 41 39 38 37 35 36 38 39 38 37 42 43 44 46 48 48 52
57 71 67 66 69 72 73 71 67 66 61 58 56 57 59 59 58 58 58 54 49 47 48 45 44 44 42 43 42 41 39 40 38 37 38 40 39 36 36 40 41 43 43 43
66 67 63 62 63 62 61 59 59 58 59 62 64 60 57 55 53 48 44 42 42 41 40 41 46 44 41 44 45 45 44 43 43 43 43 41 40 40 37 34 35 35 34 37
61 60 60 59 51 49 57 61 64 66 66 67 64 58 55 54 51 47 44 40 40 41 39 39 42 45 46 45 45 48 48 48 47 48 48 47 45 42 40 38 35 33 32 31
75 72 64 56 53 58 61 56 54 54 54 54 53 51 46 43 42 42 41 37 34 36 41 42 44 47 50 51 51 51 52 50 49 52 52 51 49 48 46 43 41 38 34 33
72 66 56 52 51 55 56 55 54 51 47 43 39 37 37 39 38 35 38 39 38 41 44 44 44 48 49 50 52 56 56 53 50 51 51 52 51 49 48 46 44 43 42 39
70 63 58 55 51 49 54 55 52 46 42 40 38 36 34 34 38 40 37 39 42 43 43 46 48 50 52 54 54 58 62 63 62 61 60 58 54 51 50 48 48 47 46 44
75 71 67 67 65 58 51 52 52 48 45 39 38 37 35 34 36 37 40 40 39 39 41 46 51 56 59 59 61 67 68 69 69 69 67 63 59 56 56 53 53 53 50 48
67 65 64 63 64 63 59 56 53 51 47 41 39 38 32 30 34 33 36 37 36 39 41 45 50 56 58 61 72 75 76 77 77 77 75 72 70 69 67 65 63 65 62 59
69 62 59 58 62 64 61 57 57 56 48 41 37 34 29 26 29 30 33 34 36 40 41 44 48 55 57 65 74 79 81 80 79 81 81 80 79 77 77 79 81 82 83 79
78 69 62 61 62 62 62 65 64 55 47 42 33 29 29 28 29 31 33 31 35 41 44 46 48 53 59 67 74 81 84 83 82 81 81 81 82 83 87 90 91 90 86 80